QPF
0.00 0.00 0.00 0.00 0.00 0.00 0.00 0.00 0.00 0.00 0.00 0.00 0.00 0.00 0.00 0.00 0.01 0.01 0.00 0.01 0.01 0.00 0.00 0.00 0.01 0.01 0.01 0.01 0.01 0.01 0.02 0.01 0.01 0.01 0.01 0.01 0.01 0.01 0.00 0.00 0.00 0.00 0.01 0.01 0.01 0.01 0.01 0.00 0.00
0.00 0.00 0.00 0.00 0.00 0.00 0.00 0.00 0.00 0.00 0.00 0.00 0.00 0.00 0.00 0.00 0.00 0.00 0.00 0.01 0.00 0.00 0.00 0.00 0.00 0.01 0.01 0.01 0.01 0.01 0.01 0.01 0.01 0.01 0.01 0.01 0.01 0.01 0.01 0.00 0.00 0.00 0.01 0.01 0.01 0.01 0.00 0.00 0.00
0.00 0.00 0.00 0.00 0.00 0.00 0.00 0.00 0.00 0.00 0.00 0.00 0.00 0.00 0.00 0.00 0.00 0.00 0.00 0.00 0.00 0.00 0.00 0.00 0.00 0.00 0.01 0.01 0.01 0.01 0.01 0.01 0.01 0.01 0.01 0.01 0.01 0.01 0.01 0.00 0.00 0.00 0.01 0.01 0.01 0.00 0.00 0.00 0.00
0.00 0.00 0.00 0.00 0.00 0.00 0.00 0.00 0.00 0.00 0.00 0.00 0.00 0.00 0.00 0.00 0.00 0.00 0.00 0.00 0.00 0.00 0.00 0.00 0.00 0.00 0.01 0.01 0.01 0.01 0.01 0.01 0.01 0.01 0.01 0.01 0.00 0.00 0.00 0.00 0.00 0.00 0.00 0.00 0.00 0.00 0.00 0.00 0.00
0.00 0.00 0.00 0.00 0.00 0.00 0.00 0.00 0.00 0.00 0.00 0.00 0.00 0.00 0.00 0.00 0.00 0.00 0.00 0.00 0.00 0.00 0.00 0.00 0.00 0.00 0.00 0.00 0.00 0.01 0.01 0.00 0.00 0.00 0.00 0.00 0.00 0.00 0.00 0.00 0.00 0.00 0.00 0.00 0.00 0.00 0.00 0.00 0.00
0.00 0.00 0.00 0.00 0.00 0.00 0.00 0.00 0.00 0.00 0.00 0.00 0.00 0.00 0.00 0.00 0.00 0.00 0.00 0.00 0.00 0.00 0.00 0.00 0.00 0.00 0.00 0.00 0.00 0.01 0.01 0.00 0.00 0.00 0.00 0.00 0.00 0.00 0.00 0.00 0.00 0.00 0.00 0.00 0.00 0.00 0.00 0.00 0.00
0.00 0.00 0.00 0.00 0.00 0.00 0.00 0.00 0.00 0.00 0.00 0.00 0.00 0.00 0.00 0.00 0.00 0.00 0.00 0.00 0.00 0.00 0.00 0.00 0.00 0.00 0.00 0.00 0.00 0.00 0.00 0.00 0.00 0.00 0.00 0.00 0.00 0.00 0.00 0.00 0.00 0.00 0.00 0.00 0.00 0.00 0.00 0.00 0.00
0.00 0.00 0.00 0.00 0.00 0.00 0.00 0.00 0.00 0.00 0.00 0.00 0.00 0.00 0.00 0.00 0.00 0.00 0.00 0.00 0.00 0.00 0.00 0.00 0.00 0.00 0.00 0.00 0.00 0.00 0.00 0.00 0.00 0.00 0.00 0.00 0.00 0.00 0.00 0.00 0.00 0.00 0.00 0.00 0.00 0.00 0.00 0.00 0.00
0.00 0.00 0.00 0.00 0.00 0.00 0.00 0.00 0.00 0.00 0.00 0.00 0.00 0.00 0.00 0.00 0.00 0.00 0.00 0.00 0.00 0.00 0.00 0.00 0.00 0.00 0.00 0.00 0.00 0.00 0.00 0.00 0.00 0.00 0.00 0.00 0.00 0.00 0.00 0.00 0.00 0.00 0.00 0.00 0.00 0.00 0.00 0.00 0.00
0.00 0.00 0.00 0.00 0.00 0.00 0.00 0.00 0.00 0.00 0.00 0.00 0.00 0.00 0.00 0.00 0.00 0.00 0.00 0.00 0.00 0.00 0.00 0.00 0.00 0.00 0.00 0.00 0.00 0.00 0.00 0.00 0.00 0.00 0.00 0.00 0.00 0.00 0.00 0.00 0.00 0.00 0.00 0.00 0.00 0.00 0.00 0.00 0.00
0.00 0.00 0.00 0.00 0.00 0.00 0.00 0.00 0.00 0.00 0.00 0.00 0.00 0.00 0.00 0.00 0.00 0.00 0.00 0.00 0.00 0.00 0.00 0.00 0.00 0.00 0.00 0.00 0.00 0.00 0.00 0.00 0.00 0.00 0.00 0.00 0.00 0.00 0.00 0.00 0.00 0.00 0.00 0.00 0.00 0.00 0.00 0.00 0.00
0.00 0.00 0.00 0.00 0.00 0.00 0.00 0.00 0.00 0.00 0.00 0.00 0.00 0.00 0.00 0.00 0.00 0.00 0.00 0.00 0.00 0.00 0.00 0.00 0.00 0.00 0.00 0.00 0.00 0.00 0.00 0.00 0.00 0.00 0.00 0.00 0.00 0.00 0.00 0.00 0.00 0.00 0.00 0.00 0.00 0.00 0.00 0.00 0.00
0.00 0.00 0.00 0.00 0.00 0.00 0.00 0.00 0.00 0.00 0.00 0.00 0.00 0.00 0.00 0.00 0.00 0.00 0.00 0.00 0.00 0.00 0.00 0.00 0.00 0.00 0.00 0.00 0.00 0.00 0.00 0.00 0.00 0.00 0.00 0.00 0.00 0.00 0.00 0.00 0.00 0.00 0.00 0.00 0.00 0.00 0.00 0.00 0.00
0.00 0.00 0.00 0.00 0.00 0.00 0.00 0.00 0.00 0.00 0.00 0.00 0.00 0.00 0.00 0.00 0.00 0.00 0.00 0.00 0.00 0.00 0.00 0.00 0.00 0.00 0.00 0.00 0.00 0.00 0.00 0.00 0.00 0.00 0.00 0.00 0.00 0.00 0.00 0.00 0.00 0.00 0.00 0.00 0.00 0.00 0.00 0.00 0.00
0.00 0.00 0.00 0.00 0.00 0.00 0.00 0.00 0.00 0.00 0.00 0.00 0.00 0.00 0.00 0.00 0.00 0.00 0.00 0.00 0.00 0.00 0.00 0.00 0.00 0.00 0.00 0.00 0.00 0.00 0.00 0.00 0.00 0.00 0.00 0.00 0.00 0.00 0.00 0.00 0.00 0.00 0.00 0.00 0.00 0.00 0.00 0.00 0.00
0.00 0.00 0.00 0.00 0.00 0.00 0.00 0.00 0.00 0.00 0.00 0.00 0.00 0.00 0.00 0.00 0.00 0.00 0.00 0.00 0.00 0.00 0.00 0.00 0.00 0.00 0.00 0.00 0.00 0.00 0.00 0.00 0.00 0.00 0.00 0.00 0.00 0.00 0.00 0.00 0.00 0.00 0.00 0.00 0.00 0.00 0.00 0.00 0.00
0.01 0.00 0.00 0.00 0.00 0.00 0.00 0.00 0.00 0.00 0.00 0.00 0.00 0.00 0.00 0.00 0.00 0.00 0.00 0.00 0.00 0.00 0.00 0.00 0.00 0.00 0.00 0.00 0.00 0.00 0.00 0.00 0.00 0.00 0.00 0.00 0.00 0.00 0.00 0.00 0.00 0.00 0.00 0.00 0.00 0.00 0.00 0.00 0.00
0.00 0.00 0.00 0.00 0.00 0.00 0.00 0.00 0.00 0.00 0.00 0.00 0.00 0.00 0.00 0.00 0.00 0.00 0.00 0.00 0.00 0.00 0.00 0.00 0.00 0.00 0.00 0.00 0.00 0.00 0.00 0.00 0.00 0.00 0.00 0.00 0.00 0.00 0.00 0.00 0.00 0.00 0.00 0.00 0.00 0.00 0.00 0.00 0.00
0.00 0.00 0.00 0.00 0.00 0.00 0.00 0.00 0.00 0.00 0.00 0.00 0.00 0.00 0.00 0.00 0.00 0.00 0.00 0.00 0.00 0.00 0.00 0.00 0.00 0.00 0.00 0.00 0.00 0.00 0.00 0.00 0.00 0.00 0.00 0.00 0.00 0.00 0.00 0.00 0.00 0.00 0.00 0.00 0.00 0.00 0.00 0.00 0.00
0.00 0.00 0.00 0.00 0.00 0.00 0.00 0.00 0.00 0.00 0.00 0.00 0.00 0.00 0.00 0.00 0.00 0.00 0.00 0.00 0.00 0.00 0.00 0.00 0.00 0.00 0.00 0.00 0.00 0.00 0.00 0.00 0.00 0.00 0.01 0.01 0.01 0.01 0.01 0.01 0.01 0.00 0.00 0.00 0.00 0.00 0.00 0.00 0.00
0.01 0.00 0.00 0.00 0.00 0.00 0.00 0.00 0.00 0.00 0.00 0.00 0.00 0.00 0.00 0.00 0.00 0.00 0.00 0.00 0.00 0.00 0.00 0.00 0.00 0.00 0.00 0.00 0.00 0.00 0.01 0.01 0.01 0.01 0.01 0.01 0.01 0.01 0.01 0.01 0.01 0.01 0.01 0.01 0.01 0.01 0.01 0.01 0.00
0.01 0.00 0.00 0.00 0.00 0.00 0.00 0.00 0.00 0.00 0.00 0.00 0.00 0.00 0.00 0.00 0.00 0.00 0.00 0.00 0.00 0.00 0.00 0.00 0.00 0.00 0.00 0.00 0.00 0.00 0.00 0.00 0.00 0.01 0.01 0.01 0.01 0.01 0.01 0.01 0.01 0.01 0.01 0.01 0.01 0.01 0.01 0.01 0.01
0.01 0.00 0.00 0.00 0.00 0.00 0.00 0.00 0.00 0.00 0.00 0.00 0.00 0.00 0.00 0.00 0.00 0.00 0.00 0.00 0.00 0.00 0.00 0.00 0.00 0.00 0.00 0.00 0.00 0.00 0.00 0.00 0.00 0.01 0.01 0.01 0.01 0.01 0.01 0.01 0.01 0.01 0.01 0.01 0.01 0.01 0.01 0.01 0.01
0.00 0.00 0.00 0.00 0.00 0.00 0.00 0.00 0.00 0.00 0.00 0.00 0.00 0.00 0.00 0.00 0.00 0.00 0.00 0.00 0.00 0.00 0.00 0.00 0.00 0.00 0.00 0.00 0.00 0.00 0.00 0.01 0.01 0.01 0.01 0.01 0.01 0.01 0.01 0.01 0.01 0.01 0.01 0.01 0.01 0.01 0.01 0.01 0.01
0.01 0.01 0.00 0.00 0.00 0.00 0.00 0.00 0.00 0.00 0.00 0.00 0.00 0.00 0.00 0.00 0.00 0.00 0.00 0.00 0.00 0.00 0.00 0.00 0.00 0.00 0.00 0.00 0.00 0.00 0.00 0.01 0.01 0.01 0.01 0.01 0.01 0.00 0.01 0.01 0.01 0.01 0.01 0.01 0.00 0.01 0.01 0.01 0.01
0.00 0.00 0.00 0.00 0.00 0.00 0.00 0.00 0.00 0.00 0.00 0.00 0.00 0.00 0.00 0.00 0.00 0.00 0.00 0.00 0.00 0.00 0.00 0.00 0.00 0.00 0.00 0.00 0.00 0.00 0.00 0.00 0.00 0.00 0.00 0.00 0.00 0.00 0.00 0.00 0.00 0.00 0.00 0.00 0.00 0.00 0.00 0.00 0.00
0.00 0.00 0.00 0.00 0.00 0.00 0.00 0.00 0.00 0.00 0.00 0.00 0.00 0.00 0.00 0.00 0.00 0.00 0.00 0.00 0.00 0.00 0.00 0.00 0.00 0.00 0.00 0.00 0.00 0.00 0.00 0.00 0.00 0.00 0.00 0.00 0.00 0.00 0.00 0.00 0.00 0.00 0.00 0.00 0.00 0.00 0.00 0.00 0.00
0.00 0.00 0.00 0.00 0.00 0.00 0.00 0.00 0.00 0.00 0.00 0.00 0.00 0.00 0.00 0.00 0.00 0.00 0.00 0.00 0.00 0.00 0.00 0.00 0.00 0.00 0.00 0.00 0.00 0.00 0.00 0.00 0.00 0.00 0.00 0.00 0.00 0.00 0.00 0.00 0.00 0.00 0.00 0.00 0.00 0.00 0.00 0.00 0.00
0.00 0.00 0.00 0.00 0.00 0.00 0.00 0.00 0.00 0.00 0.00 0.00 0.00 0.00 0.00 0.00 0.00 0.00 0.00 0.00 0.00 0.00 0.00 0.00 0.00 0.00 0.00 0.00 0.00 0.00 0.00 0.00 0.00 0.00 0.00 0.00 0.00 0.00 0.00 0.00 0.00 0.00 0.00 0.00 0.00 0.00 0.00 0.00 0.00
0.00 0.00 0.00 0.00 0.00 0.00 0.00 0.00 0.00 0.00 0.00 0.00 0.00 0.00 0.00 0.00 0.00 0.00 0.00 0.00 0.00 0.00 0.00 0.00 0.00 0.00 0.00 0.00 0.00 0.00 0.00 0.00 0.00 0.00 0.00 0.00 0.00 0.00 0.00 0.00 0.00 0.00 0.00 0.00 0.00 0.00 0.00 0.00 0.00
MSLP
1015.60 1016.17 1017.00 1017.98 1018.99 1019.88 1020.54 1020.90 1020.96 1020.79 1020.50 1020.20 1020.01 1019.99 1020.13 1020.39 1020.71 1020.98 1021.15 1021.19 1021.12 1021.00 1020.88 1020.84 1020.93 1021.13 1021.42 1021.74 1022.04 1022.26 1022.39 1022.42 1022.41 1022.38 1022.39 1022.45 1022.55 1022.69 1022.83 1022.94 1022.99 1022.98 1022.92 1022.85 1022.78 1022.74 1022.75 1022.79 1022.86
1016.15 1016.84 1017.73 1018.70 1019.63 1020.37 1020.84 1021.00 1020.87 1020.53 1020.12 1019.75 1019.52 1019.50 1019.67 1019.99 1020.37 1020.71 1020.95 1021.07 1021.08 1021.02 1020.97 1020.98 1021.10 1021.33 1021.63 1021.96 1022.27 1022.51 1022.66 1022.74 1022.76 1022.77 1022.80 1022.88 1022.99 1023.13 1023.26 1023.36 1023.41 1023.42 1023.38 1023.34 1023.29 1023.27 1023.28 1023.32 1023.36
1016.87 1017.63 1018.52 1019.41 1020.18 1020.72 1020.98 1020.93 1020.63 1020.18 1019.71 1019.34 1019.14 1019.18 1019.41 1019.79 1020.22 1020.61 1020.91 1021.07 1021.13 1021.13 1021.13 1021.19 1021.33 1021.57 1021.88 1022.21 1022.51 1022.75 1022.92 1023.01 1023.06 1023.10 1023.16 1023.24 1023.35 1023.48 1023.60 1023.69 1023.75 1023.77 1023.76 1023.74 1023.73 1023.74 1023.76 1023.79 1023.83
1017.76 1018.53 1019.34 1020.07 1020.63 1020.94 1020.97 1020.73 1020.30 1019.80 1019.34 1019.02 1018.91 1019.03 1019.35 1019.78 1020.26 1020.68 1020.99 1021.18 1021.27 1021.31 1021.35 1021.44 1021.61 1021.86 1022.16 1022.47 1022.75 1022.98 1023.14 1023.25 1023.31 1023.37 1023.45 1023.54 1023.65 1023.78 1023.89 1023.97 1024.03 1024.06 1024.08 1024.10 1024.12 1024.16 1024.20 1024.24 1024.28
1018.73 1019.46 1020.13 1020.65 1020.96 1021.02 1020.82 1020.43 1019.92 1019.42 1019.02 1018.81 1018.82 1019.06 1019.45 1019.94 1020.43 1020.84 1021.15 1021.34 1021.45 1021.51 1021.59 1021.71 1021.91 1022.16 1022.45 1022.74 1023.00 1023.20 1023.35 1023.46 1023.53 1023.61 1023.70 1023.82 1023.94 1024.06 1024.16 1024.25 1024.30 1024.35 1024.39 1024.44 1024.49 1024.56 1024.63 1024.69 1024.73
1019.69 1020.31 1020.80 1021.09 1021.14 1020.95 1020.57 1020.05 1019.52 1019.06 1018.77 1018.70 1018.85 1019.19 1019.66 1020.17 1020.65 1021.04 1021.31 1021.49 1021.60 1021.70 1021.81 1021.98 1022.20 1022.47 1022.75 1023.02 1023.25 1023.42 1023.55 1023.65 1023.75 1023.85 1023.98 1024.11 1024.25 1024.38 1024.49 1024.57 1024.62 1024.67 1024.72 1024.78 1024.87 1024.96 1025.06 1025.14 1025.19
1020.50 1020.98 1021.27 1021.32 1021.13 1020.73 1020.20 1019.62 1019.10 1018.73 1018.58 1018.65 1018.93 1019.37 1019.88 1020.39 1020.84 1021.18 1021.42 1021.58 1021.70 1021.82 1021.98 1022.20 1022.47 1022.76 1023.04 1023.29 1023.49 1023.64 1023.76 1023.86 1023.98 1024.12 1024.28 1024.46 1024.63 1024.78 1024.88 1024.95 1025.00 1025.03 1025.08 1025.15 1025.24 1025.36 1025.48 1025.57 1025.64
1021.05 1021.39 1021.48 1021.31 1020.92 1020.36 1019.74 1019.14 1018.67 1018.42 1018.40 1018.61 1019.00 1019.50 1020.04 1020.53 1020.92 1021.21 1021.41 1021.56 1021.70 1021.87 1022.09 1022.37 1022.69 1023.01 1023.30 1023.54 1023.72 1023.85 1023.96 1024.08 1024.23 1024.41 1024.63 1024.85 1025.06 1025.22 1025.33 1025.39 1025.41 1025.42 1025.45 1025.51 1025.60 1025.72 1025.85 1025.97 1026.05
1021.29 1021.47 1021.39 1021.06 1020.52 1019.87 1019.21 1018.64 1018.26 1018.12 1018.22 1018.55 1019.02 1019.56 1020.08 1020.53 1020.88 1021.12 1021.29 1021.43 1021.61 1021.83 1022.13 1022.48 1022.85 1023.21 1023.51 1023.74 1023.91 1024.04 1024.15 1024.29 1024.47 1024.70 1024.97 1025.24 1025.48 1025.67 1025.78 1025.83 1025.82 1025.80 1025.80 1025.83 1025.91 1026.03 1026.17 1026.29 1026.38
1021.20 1021.26 1021.05 1020.60 1019.98 1019.30 1018.66 1018.15 1017.87 1017.84 1018.05 1018.46 1018.97 1019.51 1020.01 1020.41 1020.70 1020.90 1021.06 1021.22 1021.43 1021.72 1022.09 1022.51 1022.93 1023.32 1023.64 1023.88 1024.04 1024.17 1024.29 1024.45 1024.66 1024.94 1025.25 1025.57 1025.85 1026.05 1026.17 1026.20 1026.17 1026.13 1026.09 1026.10 1026.16 1026.26 1026.39 1026.52 1026.61
1020.85 1020.82 1020.52 1020.02 1019.39 1018.73 1018.15 1017.74 1017.56 1017.62 1017.90 1018.35 1018.87 1019.38 1019.83 1020.18 1020.42 1020.60 1020.75 1020.94 1021.20 1021.55 1021.98 1022.45 1022.92 1023.34 1023.67 1023.91 1024.08 1024.20 1024.33 1024.51 1024.76 1025.07 1025.42 1025.77 1026.07 1026.30 1026.42 1026.45 1026.42 1026.35 1026.30 1026.28 1026.33 1026.42 1026.53 1026.65 1026.74
1020.36 1020.26 1019.92 1019.42 1018.83 1018.25 1017.77 1017.46 1017.36 1017.49 1017.81 1018.25 1018.74 1019.21 1019.60 1019.89 1020.10 1020.25 1020.41 1020.62 1020.92 1021.32 1021.79 1022.30 1022.80 1023.23 1023.57 1023.82 1023.98 1024.12 1024.26 1024.46 1024.72 1025.05 1025.43 1025.80 1026.12 1026.37 1026.51 1026.55 1026.53 1026.47 1026.42 1026.40 1026.43 1026.51 1026.61 1026.71 1026.77
1019.83 1019.70 1019.37 1018.91 1018.41 1017.93 1017.55 1017.34 1017.31 1017.48 1017.79 1018.20 1018.63 1019.02 1019.34 1019.58 1019.75 1019.90 1020.06 1020.29 1020.61 1021.03 1021.52 1022.04 1022.54 1022.98 1023.32 1023.58 1023.76 1023.91 1024.07 1024.28 1024.56 1024.90 1025.27 1025.66 1025.99 1026.26 1026.42 1026.50 1026.51 1026.49 1026.46 1026.46 1026.50 1026.57 1026.66 1026.73 1026.77
1019.38 1019.23 1018.94 1018.56 1018.16 1017.80 1017.54 1017.41 1017.43 1017.60 1017.87 1018.20 1018.54 1018.85 1019.10 1019.28 1019.42 1019.55 1019.71 1019.94 1020.26 1020.67 1021.15 1021.66 1022.14 1022.58 1022.94 1023.22 1023.43 1023.61 1023.79 1024.01 1024.30 1024.63 1025.00 1025.37 1025.71 1026.00 1026.20 1026.33 1026.40 1026.44 1026.47 1026.51 1026.57 1026.64 1026.71 1026.75 1026.75
1019.04 1018.90 1018.67 1018.39 1018.10 1017.86 1017.70 1017.63 1017.67 1017.81 1018.01 1018.24 1018.48 1018.69 1018.86 1018.99 1019.10 1019.21 1019.36 1019.57 1019.87 1020.24 1020.68 1021.16 1021.63 1022.06 1022.44 1022.76 1023.02 1023.25 1023.47 1023.71 1024.00 1024.32 1024.66 1025.02 1025.35 1025.65 1025.89 1026.09 1026.23 1026.35 1026.46 1026.55 1026.65 1026.73 1026.79 1026.80 1026.76
1018.82 1018.71 1018.55 1018.37 1018.21 1018.08 1017.99 1017.97 1017.99 1018.06 1018.16 1018.28 1018.40 1018.51 1018.61 1018.68 1018.76 1018.85 1018.98 1019.16 1019.42 1019.74 1020.13 1020.57 1021.02 1021.47 1021.88 1022.26 1022.59 1022.89 1023.16 1023.44 1023.72 1024.02 1024.33 1024.65 1024.97 1025.27 1025.55 1025.80 1026.03 1026.23 1026.42 1026.58 1026.72 1026.82 1026.87 1026.86 1026.79
1018.67 1018.60 1018.52 1018.46 1018.41 1018.37 1018.35 1018.33 1018.32 1018.30 1018.28 1018.27 1018.26 1018.27 1018.29 1018.33 1018.38 1018.46 1018.57 1018.72 1018.93 1019.20 1019.54 1019.93 1020.37 1020.83 1021.30 1021.75 1022.18 1022.56 1022.90 1023.21 1023.50 1023.77 1024.04 1024.31 1024.59 1024.89 1025.19 1025.49 1025.80 1026.08 1026.35 1026.58 1026.76 1026.88 1026.93 1026.91 1026.82
1018.53 1018.53 1018.54 1018.59 1018.65 1018.70 1018.71 1018.67 1018.58 1018.45 1018.30 1018.15 1018.02 1017.94 1017.90 1017.90 1017.94 1018.02 1018.12 1018.25 1018.42 1018.64 1018.93 1019.29 1019.72 1020.22 1020.74 1021.28 1021.80 1022.28 1022.69 1023.04 1023.33 1023.57 1023.79 1024.01 1024.25 1024.52 1024.83 1025.16 1025.52 1025.88 1026.21 1026.49 1026.71 1026.86 1026.92 1026.90 1026.81
1018.36 1018.44 1018.57 1018.74 1018.89 1019.00 1019.03 1018.94 1018.76 1018.49 1018.19 1017.90 1017.65 1017.48 1017.40 1017.39 1017.44 1017.54 1017.65 1017.78 1017.92 1018.11 1018.36 1018.70 1019.13 1019.65 1020.24 1020.85 1021.46 1022.02 1022.50 1022.88 1023.17 1023.38 1023.56 1023.72 1023.91 1024.15 1024.45 1024.81 1025.20 1025.60 1025.97 1026.30 1026.56 1026.73 1026.81 1026.81 1026.73
1018.14 1018.33 1018.58 1018.87 1019.11 1019.27 1019.28 1019.13 1018.82 1018.41 1017.95 1017.51 1017.16 1016.92 1016.81 1016.82 1016.91 1017.05 1017.20 1017.34 1017.49 1017.66 1017.89 1018.20 1018.62 1019.16 1019.78 1020.45 1021.13 1021.75 1022.28 1022.69 1022.98 1023.17 1023.30 1023.42 1023.57 1023.77 1024.06 1024.42 1024.82 1025.25 1025.66 1026.01 1026.30 1026.49 1026.59 1026.62 1026.57
1017.87 1018.20 1018.59 1018.99 1019.31 1019.49 1019.47 1019.23 1018.79 1018.22 1017.61 1017.03 1016.58 1016.30 1016.18 1016.23 1016.38 1016.59 1016.80 1017.00 1017.17 1017.33 1017.54 1017.82 1018.22 1018.74 1019.37 1020.06 1020.76 1021.42 1021.98 1022.41 1022.70 1022.89 1023.00 1023.09 1023.21 1023.40 1023.67 1024.03 1024.44 1024.88 1025.30 1025.67 1025.97 1026.18 1026.31 1026.37 1026.36
1017.59 1018.06 1018.60 1019.10 1019.49 1019.68 1019.60 1019.26 1018.68 1017.96 1017.20 1016.51 1015.98 1015.67 1015.58 1015.68 1015.92 1016.22 1016.52 1016.77 1016.98 1017.15 1017.33 1017.57 1017.92 1018.39 1018.98 1019.65 1020.34 1021.01 1021.58 1022.02 1022.33 1022.53 1022.65 1022.75 1022.87 1023.06 1023.34 1023.70 1024.12 1024.55 1024.98 1025.35 1025.65 1025.88 1026.04 1026.13 1026.17
1017.32 1017.94 1018.61 1019.21 1019.64 1019.81 1019.67 1019.23 1018.52 1017.67 1016.78 1016.01 1015.43 1015.12 1015.07 1015.25 1015.58 1015.98 1016.37 1016.69 1016.93 1017.10 1017.25 1017.44 1017.71 1018.10 1018.62 1019.23 1019.88 1020.52 1021.09 1021.56 1021.90 1022.14 1022.30 1022.45 1022.61 1022.84 1023.14 1023.51 1023.94 1024.37 1024.78 1025.15 1025.45 1025.69 1025.86 1025.98 1026.06
1017.08 1017.83 1018.60 1019.27 1019.72 1019.87 1019.67 1019.13 1018.32 1017.36 1016.40 1015.57 1014.98 1014.69 1014.70 1014.97 1015.40 1015.90 1016.38 1016.76 1017.03 1017.19 1017.30 1017.41 1017.59 1017.88 1018.30 1018.82 1019.41 1020.02 1020.59 1021.08 1021.48 1021.79 1022.04 1022.27 1022.51 1022.80 1023.14 1023.54 1023.97 1024.40 1024.80 1025.15 1025.44 1025.67 1025.85 1025.99 1026.10
1016.83 1017.68 1018.53 1019.23 1019.69 1019.80 1019.54 1018.93 1018.06 1017.04 1016.05 1015.22 1014.66 1014.42 1014.51 1014.87 1015.40 1015.99 1016.53 1016.96 1017.24 1017.39 1017.44 1017.47 1017.56 1017.74 1018.05 1018.49 1019.02 1019.59 1020.17 1020.70 1021.18 1021.59 1021.94 1022.28 1022.63 1022.99 1023.40 1023.82 1024.26 1024.67 1025.05 1025.37 1025.64 1025.86 1026.04 1026.19 1026.31
1016.54 1017.46 1018.33 1019.04 1019.47 1019.55 1019.25 1018.60 1017.71 1016.71 1015.74 1014.97 1014.48 1014.33 1014.51 1014.95 1015.56 1016.22 1016.81 1017.26 1017.54 1017.66 1017.67 1017.63 1017.62 1017.71 1017.93 1018.29 1018.77 1019.33 1019.92 1020.52 1021.08 1021.60 1022.08 1022.54 1022.99 1023.44 1023.90 1024.34 1024.78 1025.17 1025.51 1025.80 1026.04 1026.24 1026.40 1026.55 1026.69
1016.18 1017.10 1017.95 1018.63 1019.02 1019.06 1018.74 1018.11 1017.26 1016.32 1015.46 1014.79 1014.42 1014.38 1014.66 1015.18 1015.86 1016.55 1017.17 1017.62 1017.90 1017.99 1017.95 1017.86 1017.79 1017.81 1017.97 1018.28 1018.73 1019.30 1019.93 1020.59 1021.24 1021.87 1022.47 1023.04 1023.58 1024.10 1024.59 1025.05 1025.46 1025.82 1026.12 1026.37 1026.57 1026.73 1026.88 1027.03 1027.17
1015.71 1016.59 1017.38 1017.98 1018.31 1018.32 1018.01 1017.42 1016.67 1015.86 1015.15 1014.65 1014.43 1014.52 1014.90 1015.50 1016.21 1016.92 1017.54 1017.99 1018.25 1018.33 1018.28 1018.17 1018.07 1018.07 1018.21 1018.51 1018.96 1019.54 1020.21 1020.93 1021.66 1022.38 1023.07 1023.72 1024.32 1024.87 1025.37 1025.82 1026.19 1026.51 1026.76 1026.96 1027.12 1027.26 1027.39 1027.53 1027.66
1015.15 1015.93 1016.62 1017.12 1017.37 1017.35 1017.06 1016.56 1015.94 1015.31 1014.80 1014.49 1014.44 1014.67 1015.14 1015.80 1016.54 1017.26 1017.86 1018.31 1018.56 1018.65 1018.61 1018.53 1018.46 1018.48 1018.64 1018.96 1019.44 1020.04 1020.75 1021.51 1022.30 1023.06 1023.80 1024.48 1025.10 1025.65 1026.13 1026.53 1026.86 1027.12 1027.32 1027.47 1027.59 1027.71 1027.83 1027.96 1028.09
1014.52 1015.18 1015.72 1016.10 1016.26 1016.21 1015.95 1015.55 1015.09 1014.66 1014.36 1014.25 1014.38 1014.74 1015.30 1016.00 1016.75 1017.46 1018.06 1018.51 1018.78 1018.91 1018.93 1018.91 1018.92 1019.01 1019.23 1019.60 1020.11 1020.74 1021.46 1022.24 1023.03 1023.80 1024.53 1025.20 1025.80 1026.31 1026.75 1027.10 1027.37 1027.57 1027.72 1027.84 1027.94 1028.03 1028.14 1028.27 1028.39
Thickness
5722 5726 5726 5717 5694 5673 5676 5690 5699 5702 5705 5710 5710 5703 5694 5688 5686 5680 5689 5693 5691 5689 5687 5686 5686 5685 5685 5685 5686 5687 5687 5687 5688 5688 5689 5689 5689 5689 5688 5688 5688 5688 5687 5686 5686 5685 5683 5682 5682
5718 5721 5715 5699 5675 5662 5671 5691 5697 5704 5709 5712 5708 5701 5693 5690 5693 5691 5690 5691 5691 5688 5687 5685 5685 5684 5684 5684 5684 5684 5685 5685 5685 5686 5686 5686 5686 5685 5685 5685 5685 5684 5683 5682 5682 5681 5680 5679 5678
5715 5715 5698 5682 5670 5664 5679 5692 5697 5706 5714 5714 5701 5698 5693 5691 5694 5693 5694 5692 5690 5687 5686 5685 5684 5683 5683 5683 5683 5682 5683 5683 5683 5684 5684 5683 5682 5682 5682 5681 5681 5680 5680 5679 5678 5677 5676 5675 5674
5706 5698 5687 5673 5674 5681 5690 5694 5701 5705 5710 5710 5700 5691 5695 5701 5700 5697 5695 5692 5689 5686 5685 5684 5684 5683 5682 5682 5682 5681 5681 5681 5681 5681 5681 5680 5680 5679 5678 5678 5678 5677 5676 5675 5674 5673 5672 5671 5670
5696 5683 5672 5665 5674 5688 5696 5700 5705 5704 5705 5704 5698 5688 5690 5700 5704 5699 5695 5692 5689 5686 5685 5684 5683 5682 5682 5681 5681 5680 5680 5680 5679 5679 5679 5678 5678 5677 5676 5675 5675 5674 5673 5672 5671 5670 5669 5668 5667
5677 5671 5659 5657 5672 5688 5698 5703 5705 5703 5703 5702 5696 5688 5689 5698 5699 5696 5695 5691 5688 5686 5684 5683 5682 5682 5681 5681 5680 5679 5679 5678 5678 5677 5677 5676 5676 5675 5674 5673 5672 5671 5671 5670 5669 5667 5666 5665 5664
5667 5662 5659 5664 5670 5683 5697 5704 5702 5701 5701 5701 5699 5686 5688 5693 5697 5697 5694 5690 5687 5686 5684 5683 5682 5681 5681 5680 5679 5679 5678 5677 5676 5676 5675 5674 5674 5673 5672 5671 5670 5669 5668 5667 5666 5665 5664 5662 5661
5668 5662 5662 5663 5669 5681 5700 5704 5706 5704 5703 5707 5704 5690 5687 5695 5697 5696 5692 5688 5686 5684 5684 5683 5682 5681 5680 5679 5679 5678 5677 5676 5675 5675 5674 5673 5672 5671 5670 5669 5668 5667 5666 5665 5663 5662 5661 5660 5659
5667 5654 5654 5664 5671 5684 5699 5702 5706 5710 5706 5704 5705 5703 5705 5703 5698 5694 5689 5686 5684 5683 5683 5683 5683 5681 5680 5679 5678 5677 5676 5675 5675 5674 5673 5672 5671 5670 5668 5667 5666 5665 5664 5663 5661 5660 5659 5658 5657
5655 5648 5662 5678 5683 5689 5696 5700 5702 5702 5699 5697 5699 5703 5707 5702 5698 5694 5690 5687 5685 5684 5684 5684 5684 5683 5681 5680 5678 5677 5676 5675 5674 5673 5672 5671 5670 5669 5667 5666 5665 5664 5662 5661 5660 5658 5657 5656 5655
5653 5655 5670 5681 5689 5692 5693 5696 5702 5698 5695 5697 5699 5700 5702 5700 5697 5695 5693 5692 5690 5689 5687 5686 5685 5684 5683 5681 5679 5678 5677 5676 5675 5673 5672 5671 5669 5668 5666 5665 5663 5662 5661 5660 5658 5657 5655 5654 5653
5651 5661 5670 5678 5688 5690 5692 5694 5697 5700 5705 5709 5709 5708 5704 5700 5699 5698 5696 5695 5693 5691 5690 5688 5687 5686 5684 5683 5681 5679 5678 5676 5675 5674 5672 5671 5669 5667 5666 5664 5663 5661 5660 5658 5657 5655 5654 5652 5651
5647 5657 5668 5676 5683 5688 5690 5691 5696 5701 5708 5708 5706 5704 5703 5702 5701 5700 5700 5698 5696 5694 5693 5691 5689 5688 5686 5684 5682 5680 5679 5677 5676 5674 5673 5671 5669 5667 5665 5664 5662 5661 5659 5657 5656 5654 5653 5651 5649
5645 5652 5660 5669 5677 5683 5684 5687 5692 5697 5700 5699 5699 5699 5700 5702 5701 5699 5699 5698 5698 5698 5696 5694 5692 5690 5688 5686 5684 5682 5680 5679 5677 5675 5674 5672 5670 5668 5666 5664 5662 5660 5658 5656 5655 5653 5651 5649 5647
5641 5642 5649 5660 5670 5677 5679 5676 5685 5696 5692 5692 5694 5695 5697 5699 5700 5701 5702 5702 5702 5701 5699 5697 5695 5692 5690 5688 5686 5684 5682 5680 5678 5676 5674 5672 5670 5668 5666 5663 5661 5660 5657 5655 5653 5651 5648 5646 5644
5628 5628 5630 5652 5662 5669 5667 5662 5683 5688 5687 5686 5688 5689 5693 5696 5700 5703 5704 5704 5704 5703 5701 5699 5697 5694 5691 5689 5687 5685 5683 5681 5679 5677 5675 5673 5671 5668 5666 5663 5661 5659 5656 5653 5651 5648 5645 5643 5641
5613 5614 5623 5641 5655 5660 5661 5663 5680 5682 5683 5683 5684 5687 5691 5693 5697 5702 5705 5706 5705 5704 5702 5700 5698 5695 5693 5690 5688 5685 5683 5681 5679 5677 5675 5672 5670 5668 5665 5662 5660 5657 5654 5651 5648 5645 5642 5639 5637
5605 5612 5621 5630 5646 5651 5653 5661 5674 5677 5679 5681 5683 5685 5689 5693 5700 5705 5706 5707 5706 5705 5704 5701 5699 5696 5693 5690 5686 5684 5682 5680 5678 5676 5674 5672 5669 5666 5663 5660 5657 5654 5651 5647 5644 5641 5638 5635 5633
5611 5614 5619 5630 5642 5645 5648 5656 5667 5673 5674 5675 5678 5683 5688 5696 5703 5704 5707 5707 5706 5705 5703 5702 5699 5697 5693 5689 5686 5683 5681 5679 5677 5675 5672 5670 5667 5665 5661 5658 5654 5651 5647 5644 5641 5637 5633 5630 5627
5605 5608 5615 5625 5635 5636 5639 5647 5660 5666 5671 5678 5682 5685 5691 5694 5698 5702 5704 5705 5706 5705 5704 5702 5700 5697 5695 5691 5688 5685 5681 5677 5675 5672 5670 5667 5665 5662 5658 5655 5651 5648 5644 5639 5636 5631 5627 5624 5621
5597 5602 5609 5615 5623 5631 5632 5636 5649 5661 5668 5674 5680 5686 5691 5695 5699 5701 5702 5703 5704 5704 5704 5703 5700 5698 5695 5691 5686 5681 5677 5674 5671 5669 5667 5665 5662 5659 5656 5652 5648 5644 5640 5635 5631 5627 5622 5618 5614
5592 5606 5609 5607 5607 5606 5618 5612 5639 5652 5660 5669 5677 5682 5688 5694 5698 5700 5701 5701 5702 5702 5702 5701 5699 5696 5693 5689 5684 5680 5676 5673 5670 5667 5664 5661 5658 5655 5652 5648 5644 5639 5635 5631 5626 5622 5617 5612 5608
5598 5604 5602 5601 5600 5599 5606 5607 5628 5645 5652 5667 5678 5683 5687 5691 5693 5696 5698 5699 5698 5697 5696 5696 5695 5693 5691 5687 5683 5678 5673 5670 5666 5662 5659 5656 5653 5650 5646 5642 5638 5633 5629 5624 5620 5615 5610 5605 5601
5593 5591 5590 5588 5587 5585 5598 5600 5619 5636 5657 5672 5679 5682 5684 5685 5686 5688 5689 5690 5690 5688 5688 5689 5690 5689 5687 5684 5680 5675 5670 5665 5661 5657 5653 5649 5645 5642 5638 5635 5630 5625 5621 5616 5611 5606 5601 5596 5591
5583 5577 5566 5567 5565 5578 5595 5597 5618 5648 5659 5670 5678 5679 5677 5676 5676 5677 5679 5680 5681 5681 5681 5681 5682 5682 5682 5679 5676 5672 5667 5662 5657 5652 5647 5642 5637 5632 5628 5625 5620 5616 5611 5606 5601 5596 5590 5585 5579
5580 5584 5569 5562 5564 5571 5584 5588 5620 5647 5657 5663 5668 5669 5667 5665 5666 5669 5670 5671 5672 5673 5673 5673 5674 5674 5674 5673 5669 5666 5661 5656 5650 5645 5639 5634 5628 5623 5618 5614 5609 5604 5600 5594 5589 5584 5578 5572 5566
5576 5577 5585 5571 5560 5567 5577 5595 5615 5639 5648 5654 5656 5657 5657 5656 5657 5658 5660 5661 5662 5664 5664 5665 5665 5665 5665 5664 5661 5656 5652 5647 5640 5634 5628 5623 5617 5612 5607 5602 5597 5592 5587 5582 5577 5570 5564 5558 5553
5584 5579 5565 5561 5556 5563 5581 5590 5609 5633 5641 5647 5648 5650 5648 5646 5645 5646 5648 5649 5650 5652 5654 5654 5655 5655 5654 5653 5650 5645 5640 5635 5629 5623 5616 5611 5605 5600 5595 5590 5584 5579 5573 5568 5562 5556 5550 5544 5538
5570 5571 5572 5567 5564 5565 5568 5592 5623 5639 5648 5651 5652 5647 5641 5637 5636 5636 5636 5637 5639 5640 5641 5642 5641 5641 5640 5639 5636 5632 5626 5621 5615 5609 5602 5598 5592 5587 5582 5577 5571 5565 5559 5553 5548 5541 5535 5529 5523
5573 5575 5573 5569 5561 5567 5574 5594 5630 5635 5641 5644 5644 5639 5633 5630 5627 5625 5625 5625 5626 5627 5628 5628 5628 5628 5626 5625 5622 5617 5611 5606 5601 5594 5589 5584 5579 5574 5568 5563 5557 5551 5545 5539 5533 5526 5520 5515 5509